| time (UTC) | temp C | wind direction | speed KPH | gust KPH | rain 1hr cm | rain 24hr cm | rain mn cm | humidity % | barometer mb |
| 20260505151533 | 15 | 266 | 11.3 | 24.1 | 0.00 | 0.00 | 0.00 | 75 | 1011.3 |
| 20260505130111 | 11 | 248 | 6.4 | 14.5 | 0.00 | 0.00 | 0.00 | 84 | 1010.0 |
| 20260505124650 | 11 | 254 | 6.4 | 14.5 | 0.00 | 0.00 | 0.00 | 83 | 1009.9 |
| 20260505123031 | 11 | 252 | 6.4 | 14.5 | 0.00 | 0.00 | 0.00 | 82 | 1009.7 |
| 20260505121535 | 12 | 253 | 6.4 | 12.9 | 0.00 | 0.00 | 0.00 | 81 | 1009.6 |
| 20260505120030 | 12 | 250 | 8.0 | 14.5 | 0.00 | 0.00 | 0.00 | 81 | 1009.5 |
| 20260505114528 | 12 | 251 | 6.4 | 16.1 | 0.00 | 0.00 | 0.00 | 80 | 1009.5 |
| 20260505113032 | 13 | 258 | 6.4 | 17.7 | 0.00 | 0.00 | 0.00 | 80 | 1009.4 |
| 20260505100033 | 13 | 268 | 8.0 | 16.1 | 0.00 | 0.00 | 0.00 | 81 | 1008.7 |
| 20260505094606 | 13 | 251 | 6.4 | 17.7 | 0.00 | 0.00 | 0.00 | 81 | 1008.6 |
| 20260505093037 | 13 | 260 | 8.0 | 16.1 | 0.00 | 0.00 | 0.00 | 80 | 1008.5 |
| 20260505091535 | 13 | 263 | 6.4 | 14.5 | 0.00 | 0.00 | 0.00 | 80 | 1008.5 |
| 20260505084531 | 13 | 256 | 6.4 | 16.1 | 0.00 | 0.00 | 0.00 | 79 | 1008.5 |
| 20260505083035 | 14 | 257 | 8.0 | 16.1 | 0.00 | 0.00 | 0.00 | 78 | 1008.5 |
| 20260505081535 | 14 | 255 | 8.0 | 16.1 | 0.00 | 0.00 | 0.00 | 77 | 1008.4 |
| 20260505080031 | 14 | 256 | 8.0 | 16.1 | 0.00 | 0.00 | 0.00 | 75 | 1008.4 |
| 20260505074530 | 15 | 251 | 6.4 | 14.5 | 0.00 | 0.00 | 0.00 | 74 | 1008.4 |
| 20260505071537 | 15 | 259 | 8.0 | 14.5 | 0.00 | 0.00 | 0.00 | 71 | 1008.2 |
| 20260505070030 | 15 | 265 | 6.4 | 11.3 | 0.00 | 0.00 | 0.00 | 69 | 1008.0 |
| 20260505063028 | 16 | 252 | 8.0 | 16.1 | 0.00 | 0.00 | 0.00 | 66 | 1008.0 |
| 20260505061535 | 16 | 261 | 8.0 | 17.7 | 0.00 | 0.00 | 0.00 | 66 | 1007.9 |
| 20260505060030 | 16 | 263 | 8.0 | 12.9 | 0.00 | 0.00 | 0.00 | 66 | 1007.8 |
| 20260505054531 | 16 | 259 | 8.0 | 17.7 | 0.00 | 0.00 | 0.00 | 65 | 1007.7 |
| 20260505053031 | 16 | 259 | 6.4 | 17.7 | 0.00 | 0.00 | 0.00 | 64 | 1007.8 |
| 20260505051537 | 17 | 260 | 8.0 | 16.1 | 0.00 | 0.00 | 0.00 | 63 | 1007.7 |
| 20260505041530 | 17 | 255 | 8.0 | 16.1 | 0.00 | 0.00 | 0.00 | 63 | 1007.2 |
| 20260505040042 | 17 | 257 | 6.4 | 14.5 | 0.00 | 0.00 | 0.00 | 62 | 1007.0 |
| 20260505034534 | 18 | 249 | 6.4 | 9.7 | 0.00 | 0.00 | 0.00 | 60 | 1006.8 |
| 20260505030034 | 20 | 261 | 6.4 | 16.1 | 0.00 | 0.00 | 0.00 | 55 | 1006.3 |
| 20260505024533 | 21 | 264 | 6.4 | 16.1 | 0.00 | 0.00 | 0.00 | 53 | 1006.1 |
| 20260505023030 | 22 | 256 | 8.0 | 17.7 | 0.00 | 0.00 | 0.00 | 51 | 1006.0 |
| 20260505021531 | 22 | 258 | 9.7 | 19.3 | 0.00 | 0.00 | 0.00 | 50 | 1006.0 |
| 20260505020107 | 23 | 258 | 9.7 | 24.1 | 0.00 | 0.00 | 0.00 | 47 | 1006.0 |
| 20260505014532 | 25 | 261 | 11.3 | 22.5 | 0.00 | 0.00 | 0.00 | 44 | 1006.0 |
| 20260505011530 | 25 | 262 | 9.7 | 22.5 | 0.00 | 0.00 | 0.00 | 43 | 1006.0 |
| 20260505004530 | 26 | 259 | 9.7 | 19.3 | 0.00 | 0.00 | 0.00 | 40 | 1006.1 |
| 20260505001535 | 27 | 267 | 11.3 | 20.9 | 0.00 | 0.00 | 0.00 | 35 | 1006.1 |
| 20260505000108 | 27 | 273 | 9.7 | 17.7 | 0.00 | 0.00 | 0.00 | 34 | 1006.2 |
| 20260504234533 | 27 | 258 | 8.0 | 20.9 | 0.00 | 0.00 | 0.00 | 35 | 1006.1 |
| 20260504233149 | 27 | 269 | 8.0 | 16.1 | 0.00 | 0.00 | 0.00 | 35 | 1006.2 |
| 20260504231530 | 28 | 287 | 8.0 | 16.1 | 0.00 | 0.00 | 0.00 | 36 | 1006.3 |
| 20260504230045 | 28 | 275 | 8.0 | 20.9 | 0.00 | 0.00 | 0.00 | 35 | 1006.4 |
| 20260504224536 | 28 | 294 | 6.4 | 14.5 | 0.00 | 0.00 | 0.00 | 34 | 1006.6 |
| 20260504223031 | 28 | 289 | 6.4 | 14.5 | 0.00 | 0.00 | 0.00 | 33 | 1006.7 |
| 20260504221536 | 29 | 314 | 6.4 | 11.3 | 0.00 | 0.00 | 0.00 | 32 | 1006.8 |
| 20260504220033 | 28 | 273 | 1.6 | 8.0 | 0.00 | 0.00 | 0.00 | 33 | 1006.9 |
| 20260504214536 | 28 | 350 | 4.8 | 11.3 | 0.00 | 0.00 | 0.00 | 34 | 1007.1 |
| 20260504213033 | 27 | 353 | 4.8 | 22.5 | 0.00 | 0.00 | 0.00 | 34 | 1007.2 |
| 20260504211535 | 27 | 302 | 4.8 | 11.3 | 0.00 | 0.00 | 0.00 | 34 | 1007.3 |
| 20260504210034 | 27 | 184 | 3.2 | 9.7 | 0.00 | 0.00 | 0.00 | 34 | 1007.4 |
| 20260504203031 | 27 | 47 | 3.2 | 11.3 | 0.00 | 0.00 | 0.00 | 35 | 1007.7 |
| 20260504200140 | 27 | 250 | 1.6 | 9.7 | 0.00 | 0.00 | 0.00 | 37 | 1008.0 |
| 20260504194530 | 27 | 313 | 0.0 | 6.4 | 0.00 | 0.00 | 0.00 | 38 | 1008.1 |
| 20260504193031 | 27 | 283 | 3.2 | 12.9 | 0.00 | 0.00 | 0.00 | 40 | 1008.1 |
| 20260504191532 | 26 | 263 | 1.6 | 9.7 | 0.00 | 0.00 | 0.00 | 42 | 1008.4 |
| 20260504190032 | 25 | 332 | 4.8 | 11.3 | 0.00 | 0.00 | 0.00 | 43 | 1008.5 |
| 20260504184533 | 25 | 290 | 3.2 | 8.0 | 0.00 | 0.00 | 0.00 | 45 | 1008.6 |
| 20260504180127 | 23 | 266 | 6.4 | 12.9 | 0.00 | 0.00 | 0.00 | 48 | 1008.7 |
| 20260504174608 | 23 | 258 | 4.8 | 11.3 | 0.00 | 0.00 | 0.00 | 49 | 1008.6 |
| 20260504173029 | 22 | 271 | 6.4 | 17.7 | 0.00 | 0.00 | 0.00 | 51 | 1008.7 |
| 20260504171532 | 21 | 272 | 6.4 | 16.1 | 0.00 | 0.00 | 0.00 | 52 | 1008.7 |